SCP
-0 -0 0 0 -0 -0 -0 -0 -0 -0 -0 0 0 -0 -0 0 0 0 0 0 0 -0 -0 -0 -0 -0 -0 -0 -0 -0 -0 -0 0 0 0 -0 -0 -0 -0 -0 -0 -0 -0 -0 -0 -0 -0 -0 -0
-0 -0 0 0 -0 0 -0 -0 0 0 0 0 0 -0 0 0 0 0 0 0 0 0 0 0 -0 -0 -0 -0 -0 -0 -0 -0 0 0 -0 -0 -0 -0 -0 -0 0 0 -0 -0 -0 -0 -0 -0 -0
-0 -0 0 0 0 0 -0 0 0 -0 0 -0 -0 -0 0 0 0 0 0 0 0 0 0 0 -0 -0 -0 -0 -0 -0 -0 -0 -0 -0 -0 -0 -0 -0 -0 -0 0 0 -0 -0 -0 -0 -0 -0 -0
-0 0 0 -0 -0 -0 -0 -0 0 0 0 0 0 -0 0 0 0 0 0 0 0 0 0 0 -0 -0 -0 -0 -0 -0 -0 -0 -0 -0 -0 -0 -0 -0 -0 0 0 -0 -0 -0 -0 -0 -0 -0 -0
0 0 -0 -0 -0 0 -0 0 0 0 -0 0 0 0 0 0 0 -0 -0 0 -0 0 0 0 -0 -0 -0 -0 -0 -0 -0 -0 -0 -0 -0 -0 -0 -0 0 0 0 -0 -0 -0 -0 -0 -0 0 0
0 0 -0 0 0 0 0 -0 -0 0 -0 0 0 0 0 0 0 0 0 0 0 -0 -0 -0 -0 -0 -0 -0 -0 -0 -0 -0 -0 -0 -0 -0 -0 0 0 0 0 -0 -0 -0 -0 0 0 0 0
-0 -0 -0 -0 0 -0 -0 -0 0 0 0 0 0 0 0 0 0 0 0 0 0 -0 -0 -0 -0 -0 -0 -0 -0 -0 -0 -0 -0 -0 -0 -0 -0 0 0 0 0 -0 0 0 0 0 0 0 0
0 0 -0 -0 0 0 0 -0 0 -0 -0 -0 0 0 0 0 0 0 0 0 0 -0 -0 -0 -0 -0 -0 -0 -0 -0 -0 -0 -0 -0 -0 -0 -0 0 0 0 0 0 0 0 0 0 0 0 0
0 0 -0 -0 -0 -0 0 -0 0 -0 0 0 0 0 0 0 0 0 0 0 0 0 0 -0 -0 -0 -0 -0 -0 -0 -0 -0 -0 -0 -0 -0 0 0 0 0 0 0 0 0 0 0 0 0 0
0 -0 -0 -0 0 0 0 0 0 -0 0 0 0 0 0 0 0 0 0 -0 -0 -0 0 -0 -0 -0 -0 -0 -0 -0 -0 -0 -0 -0 0 0 0 0 0 0 0 0 0 0 0 0 0 0 0
0 -0 -0 -0 0 0 0 0 0 0 0 -0 0 0 0 -0 -0 0 -0 -0 -0 -0 -0 -0 -0 -0 -0 -0 -0 -0 -0 -0 -0 -0 -0 -0 0 0 -0 -0 -0 0 0 0 0 0 0 0 0
-0 -0 -0 -0 -0 -0 0 0 0 0 0 0 0 -0 0 -0 -0 -0 0 -0 -0 -0 -0 -0 -0 -0 -0 -0 -0 -0 -0 -0 -0 -0 -0 0 0 0 0 0 0 0 0 0 0 0 0 0 0
0 0 0 0 0 0 0 -0 0 0 0 0 0 0 0 -0 -0 -0 -0 -0 -0 -0 -0 -0 -0 -0 -0 0 0 0 -0 0 -0 0 0 0 0 0 0 0 0 0 0 0 0 0 0 0 0
0 -0 0 0 0 0 0 -0 0 -0 0 0 0 0 -0 -0 -0 -0 -0 -0 -0 -0 -0 -0 -0 -0 -0 -0 -0 -0 0 0 0 0 0 0 0 0 0 0 0 0 0 0 0 0 0 0 0
-0 -0 -0 -0 0 0 0 -0 -0 0 0 0 0 0 -0 -0 -0 -0 -0 -0 -0 -0 -0 -0 -0 -0 -0 -0 -0 0 0 0 0 0 0 0 0 0 0 0 0 0 0 0 0 0 0 0 0
-0 0 0 0 0 0 0 -0 -0 0 0 0 0 0 -0 -0 -0 -0 -0 -0 -0 -0 -0 -0 -0 -0 -0 -0 -0 0 0 0 0 0 0 0 0 0 0 0 0 0 0 0 0 0 0 0 0
0 0 0 0 0 -0 0 -0 0 -0 0 0 0 0 -0 -0 -0 -0 -0 -0 -0 -0 0 0 -0 -0 -0 -0 0 0 0 0 0 0 0 0 0 0 0 0 0 0 0 0 0 0 0 0 0
0 0 0 0 0 0 -0 0 0 -0 -0 -0 -0 0 0 0 -0 -0 -0 -0 -0 -0 -0 0 0 0 -0 0 0 0 0 0 0 0 0 0 0 0 0 0 0 0 0 0 0 0 0 0 0
0 0 0 0 0 0 -0 0 0 0 0 0 0 -0 0 0 -0 -0 0 0 0 0 0 0 0 0 0 0 0 0 0 0 0 0 0 0 0 0 0 0 0 0 0 0 0 0 0 0 0
0 0 0 0 -0 0 0 0 -0 0 0 0 0 0 0 0 0 0 0 0 0 0 0 0 0 0 0 0 1 1 0 0 0 0 0 0 0 0 0 0 0 0 0 0 0 0 0 0 0
0 0 0 0 0 -0 0 0 0 0 0 0 0 0 0 0 0 0 0 0 0 0 0 0 0 0 0 1 1 1 1 1 1 0 0 0 0 0 0 0 0 0 0 0 0 0 0 0 0
0 0 0 0 -0 0 0 0 -0 0 0 0 0 0 0 0 0 -0 -0 0 0 0 0 0 0 0 1 2 2 2 2 2 1 1 0 0 0 0 0 0 0 0 0 0 0 0 0 0 0
0 0 0 0 0 -0 -0 0 -0 -0 0 -0 0 -0 0 -0 0 -0 -0 0 0 0 0 0 1 1 2 2 3 3 3 1 0 0 0 0 0 0 0 0 0 0 0 0 0 0 0 0 0
0 0 0 0 0 0 0 0 -0 -0 0 0 0 0 0 -0 -0 0 0 0 0 1 1 2 2 3 4 2 3 3 3 1 1 0 0 0 0 0 0 0 0 0 0 0 0 0 0 0 0
0 -0 0 0 -0 0 0 0 -0 0 0 -0 0 0 0 -0 0 -0 0 0 0 1 1 2 3 4 4 4 3 2 2 1 1 0 0 0 0 0 0 0 0 0 0 0 0 0 0 0 0
0 0 0 0 0 0 0 0 -0 0 -0 -0 -0 -0 0 0 0 0 -0 -0 1 2 2 3 4 5 4 4 3 2 1 1 1 0 0 0 0 0 0 0 0 0 0 0 0 0 0 0 0
0 0 0 0 0 0 0 -0 -0 0 0 -0 0 0 0 0 0 0 0 0 1 2 2 3 4 5 4 3 2 1 1 0 0 0 0 0 0 0 0 0 0 0 0 0 0 0 0 0 0
0 -0 0 0 0 0 0 0 0 0 0 0 0 0 0 0 0 0 1 1 1 1 2 3 4 4 2 2 1 1 0 0 0 0 0 0 0 0 0 0 0 0 0 0 0 0 0 0 0
-0 -0 0 0 0 0 0 0 0 0 0 0 0 0 0 0 0 -0 0 1 2 2 2 3 3 3 2 1 0 0 0 0 0 0 0 0 0 0 0 0 0 0 0 0 0 0 0 0 0
0 0 0 0 0 0 0 0 0 0 0 0 0 0 0 0 0 0 0 0 1 2 3 3 3 2 1 0 0 0 0 0 0 0 0 0 0 0 0 0 0 0 0 0 0 0 0 0 0
Wind_Speed_500mb
35 22 13 7 7 9 7 7 1 6 8 14 12 10 12 6 10 8 25 52 45 59 61 60 54 47 42 42 41 38 34 31 29 29 29 28 25 21 19 17 17 18 20 23 25 24 22 19 17
35 25 4 4 8 5 11 7 12 14 20 5 17 2 3 5 4 21 48 55 45 59 62 62 55 48 43 42 39 36 32 28 28 27 26 24 21 18 15 14 16 20 23 24 23 21 18 15 14
28 22 4 7 6 3 8 10 18 14 30 22 15 9 7 4 11 43 42 49 59 63 63 61 56 50 44 41 39 34 31 28 26 25 23 21 17 14 12 12 17 20 21 21 21 18 14 10 7
18 6 8 7 10 14 10 25 25 6 16 38 20 5 1 11 24 30 44 48 64 62 60 59 56 50 44 41 37 34 31 27 24 22 21 19 16 12 9 12 16 17 18 17 15 12 8 3 1
15 5 8 6 10 10 11 22 31 13 8 20 26 10 8 19 24 30 44 50 55 57 58 57 54 49 45 40 38 34 29 24 21 21 20 17 13 10 7 12 15 15 15 13 11 9 5 5 7
1 5 7 6 10 10 16 26 20 14 16 17 18 19 7 16 29 29 41 45 49 53 54 53 51 48 44 41 37 32 27 23 22 20 18 16 13 10 8 10 14 14 13 11 9 7 8 10 12
12 8 8 8 12 12 7 11 10 5 17 12 26 7 6 19 33 37 42 43 48 51 52 51 50 47 44 40 35 32 28 25 21 20 19 18 15 12 10 11 13 13 10 7 7 9 12 14 17
12 10 3 7 6 14 12 6 23 24 14 13 27 10 11 35 51 49 52 49 51 56 52 50 48 46 44 42 38 34 30 26 23 22 22 19 17 14 11 11 12 10 7 6 9 14 16 19 21
12 8 7 9 6 13 42 11 11 11 22 33 13 12 13 47 62 58 59 56 59 59 52 49 47 46 44 41 38 35 32 29 27 25 24 22 19 17 16 11 11 11 9 8 11 13 18 24 21
8 8 14 16 10 14 40 23 6 13 22 23 11 15 38 56 67 66 64 61 61 59 53 54 51 50 47 43 39 36 34 32 29 27 25 24 23 22 21 17 16 14 13 13 14 18 23 23 24
11 11 9 27 47 48 28 42 13 15 7 33 36 56 61 66 74 71 64 57 53 51 52 51 49 50 48 46 43 41 38 34 33 32 30 28 28 28 23 22 19 15 15 16 20 22 24 27 32
3 21 16 23 34 16 12 22 4 43 31 45 50 68 74 75 76 76 68 63 61 62 49 50 49 50 50 47 46 41 38 33 36 35 33 33 31 30 26 24 23 24 21 23 26 29 32 36 38
7 7 25 37 45 37 26 28 17 32 28 28 60 78 79 77 75 71 62 52 58 63 56 51 52 48 50 49 49 46 43 34 29 34 32 32 30 29 28 28 27 26 27 30 32 33 35 38 41
11 22 35 32 28 14 10 15 6 47 14 41 63 75 85 82 74 70 71 63 64 59 63 53 56 52 52 49 45 48 45 33 27 30 27 28 26 24 24 28 31 35 37 34 32 35 40 42 44
15 13 19 10 10 19 9 23 14 39 25 49 69 77 79 88 79 71 55 70 62 58 61 62 59 58 57 49 42 46 45 41 36 31 32 32 29 28 30 31 32 37 39 40 40 42 41 43 46
10 7 9 13 15 17 4 23 32 25 27 48 71 73 77 80 90 81 62 61 70 62 68 65 63 65 61 56 47 47 46 45 40 39 38 38 36 36 38 36 35 41 46 45 44 44 45 45 50
13 5 7 17 19 7 1 17 23 14 19 34 54 73 84 84 82 88 81 73 72 72 67 71 71 68 61 55 53 47 45 49 47 44 44 44 41 41 43 38 44 48 46 43 44 43 45 48 49
6 10 10 13 14 7 10 15 20 31 16 6 28 64 81 79 90 88 90 80 83 79 76 73 76 75 66 61 57 53 52 53 56 52 49 46 46 46 46 43 47 52 46 41 43 44 45 43 45
6 6 11 23 16 9 10 11 23 34 25 27 22 30 68 77 91 93 87 87 88 88 86 83 84 82 77 70 66 63 63 60 63 61 55 54 52 49 49 50 46 58 45 39 44 42 40 40 46
12 10 14 13 9 4 14 20 16 15 21 29 48 32 36 44 66 92 94 90 93 92 98 94 90 86 77 73 69 69 64 67 70 69 68 61 57 51 54 35 26 68 49 43 38 38 36 39 44
10 10 9 11 9 8 14 16 14 15 15 36 48 49 46 40 56 64 88 99 96 95 99 95 93 89 79 74 74 75 74 73 76 78 72 63 53 65 64 27 26 54 45 37 33 32 36 39 39
5 8 3 10 10 4 6 8 12 19 27 19 36 66 32 9 16 39 66 91 104 97 96 93 90 89 79 77 76 85 85 76 75 69 66 63 67 64 53 24 46 38 33 31 27 32 37 39 33
14 4 6 6 7 5 15 9 17 17 30 40 29 52 43 32 5 19 44 71 95 94 91 86 85 86 79 76 77 82 80 78 70 74 64 59 67 62 50 37 24 22 25 25 28 34 38 31 31
5 6 13 9 6 7 9 7 13 11 12 24 22 62 54 38 12 9 20 32 64 87 85 78 77 82 84 80 77 73 72 70 72 63 60 57 62 53 39 16 16 22 20 23 31 35 30 28 29
12 14 8 10 10 8 4 5 14 21 18 10 17 54 58 27 18 13 14 17 28 61 75 73 74 78 75 70 64 62 66 62 60 60 58 57 59 50 21 13 17 18 20 26 33 30 26 25 21
3 12 10 4 4 10 8 4 8 10 24 10 8 38 44 56 21 19 21 20 21 30 48 64 66 65 62 56 53 52 56 56 54 48 46 41 41 25 16 20 17 21 24 29 29 25 21 19 18
4 6 3 11 5 4 7 12 15 11 17 27 40 29 28 39 30 20 19 20 25 38 44 50 55 54 47 45 49 44 51 53 51 46 37 36 29 18 21 19 22 22 25 27 24 23 22 24 25
12 5 8 8 1 8 10 9 9 13 18 16 16 28 36 26 23 17 20 27 36 40 43 48 46 42 37 37 40 36 34 39 39 33 25 24 21 19 18 19 19 22 24 23 25 26 27 30 32
12 9 8 7 6 8 6 12 8 8 18 16 21 30 34 25 15 17 29 37 47 44 49 47 39 33 33 41 33 28 30 32 24 18 16 15 11 11 14 15 18 20 21 24 27 33 34 35 33
11 6 9 8 10 2 3 13 5 13 18 28 24 29 31 36 27 24 18 27 39 49 54 48 39 39 35 39 24 18 25 23 19 13 14 11 9 10 12 14 18 22 25 29 32 33 34 35 37
Wind_Direction_500mb
353 350 302 12 36 44 284 265 139 258 305 277 331 193 185 107 184 207 153 169 174 176 172 171 175 176 175 171 165 160 156 152 147 146 148 146 145 141 139 138 140 141 140 141 138 134 130 129 126
347 347 354 99 84 20 284 250 223 208 212 314 285 189 176 151 165 151 155 171 180 175 173 173 176 180 179 173 168 162 157 154 151 151 150 148 144 137 132 132 135 139 142 142 139 139 138 133 129
342 340 64 87 99 213 264 213 255 255 232 259 324 338 350 167 176 152 163 176 177 176 173 174 177 182 182 176 170 165 163 161 158 157 154 152 143 133 124 128 135 140 146 149 150 151 149 142 134
344 356 60 84 246 263 243 280 242 169 259 243 205 266 263 188 159 166 170 174 175 175 173 176 180 184 184 178 173 172 171 167 164 159 159 158 151 139 129 138 145 155 157 159 162 164 163 164 266
335 28 51 336 273 258 264 292 211 170 238 167 172 211 220 175 159 175 172 171 175 175 175 179 182 185 185 180 180 180 176 171 167 169 168 167 161 154 151 159 163 167 166 175 185 197 212 265 294
17 62 50 270 249 284 293 321 200 204 226 165 183 173 179 207 196 181 165 167 176 179 178 183 184 186 185 184 186 184 182 180 180 181 178 178 180 179 182 174 175 177 182 191 209 238 270 286 295
136 95 220 233 275 310 159 21 206 257 280 221 168 128 199 181 169 163 162 174 181 183 180 185 186 186 188 189 191 192 191 192 193 191 191 194 196 203 198 193 191 190 198 216 249 271 278 283 285
160 106 236 254 255 272 193 20 305 185 226 227 172 187 206 180 162 169 174 180 183 184 184 187 189 190 192 193 196 197 200 201 202 202 205 206 211 218 216 210 206 198 207 240 273 275 280 278 282
166 74 245 247 270 262 303 69 328 224 241 205 216 229 257 169 169 176 179 181 187 185 189 192 195 196 199 199 200 202 206 208 211 212 213 217 223 230 222 213 197 185 210 261 277 279 269 269 277
128 137 228 217 234 285 308 316 300 208 184 239 194 192 178 176 177 185 183 180 184 187 192 199 201 201 201 205 207 209 211 213 217 221 223 226 230 235 228 211 209 231 238 244 265 274 278 277 279
164 195 216 276 274 279 279 292 289 198 252 226 180 170 178 185 185 190 191 194 196 190 195 199 203 206 207 209 211 212 214 217 220 222 226 229 234 239 225 218 226 235 251 260 265 276 287 280 290
283 246 247 287 306 295 250 279 220 190 217 243 189 177 179 188 194 196 199 202 201 199 203 202 203 208 210 214 216 217 217 220 225 225 229 233 235 229 229 236 240 243 254 262 263 275 284 286 289
209 290 307 304 310 302 281 257 257 223 258 214 180 177 189 191 199 202 204 209 207 208 208 211 207 209 212 213 219 218 214 223 230 225 229 230 230 234 243 248 248 251 259 269 274 275 284 283 286
297 292 298 310 304 279 255 275 201 291 180 183 185 189 193 200 203 203 205 207 213 213 214 216 210 210 211 214 213 211 219 221 222 218 222 224 229 239 253 257 262 264 268 276 277 282 285 285 287
302 341 328 305 329 309 292 303 232 275 200 184 194 199 201 206 207 212 216 215 217 221 221 219 216 213 214 215 213 215 221 224 224 226 229 232 238 249 258 267 274 278 276 275 274 277 282 288 295
6 50 9 293 355 315 119 267 280 299 190 194 199 202 205 213 212 216 220 221 223 225 224 222 220 218 220 220 221 222 224 228 232 235 237 241 244 248 255 266 275 276 273 269 268 275 283 286 291
7 292 318 316 320 277 137 287 285 355 199 208 212 209 210 218 222 222 221 225 225 228 226 225 223 224 226 229 230 233 235 234 238 239 242 245 246 249 254 266 267 269 263 266 269 274 277 286 294
291 333 313 281 299 351 322 287 303 331 320 18 233 223 220 219 224 228 224 223 230 231 231 229 229 226 229 231 233 234 236 238 241 240 242 246 248 252 248 258 259 265 267 269 272 276 284 293 298
269 268 269 282 270 292 339 304 303 311 326 303 286 231 230 229 237 231 228 228 227 232 233 232 229 229 227 229 229 232 239 241 239 247 254 255 255 252 247 250 263 269 266 271 278 281 288 294 303
232 268 270 278 267 274 348 294 274 288 267 269 298 283 242 239 245 237 231 230 230 230 234 232 231 231 233 232 235 236 244 245 247 250 251 252 256 252 241 232 314 279 269 276 279 284 292 302 309
233 206 257 233 311 30 341 321 319 293 267 305 304 312 300 260 233 237 236 232 230 230 233 233 231 231 233 234 235 233 237 238 241 242 245 248 252 258 238 256 291 263 270 270 281 290 303 310 306
288 240 265 315 40 318 39 284 329 324 314 295 344 346 319 242 206 222 236 229 227 229 231 234 231 233 233 236 234 234 237 238 243 244 244 250 252 231 245 254 271 262 264 278 292 303 312 309 305
232 50 28 357 81 42 347 57 276 324 351 342 332 14 9 296 199 236 229 233 230 229 232 236 233 232 235 237 240 241 244 247 252 253 248 250 244 237 247 248 246 253 269 287 303 311 311 308 308
309 26 42 54 51 38 290 103 299 322 306 332 360 29 8 359 321 161 227 227 238 229 234 236 236 235 233 235 240 245 249 254 257 255 264 260 241 237 239 231 253 274 283 299 305 312 315 313 314
74 49 357 1 12 218 324 45 242 292 291 276 353 36 28 344 309 252 222 221 229 233 237 238 237 238 241 243 248 256 260 259 262 265 265 270 235 237 246 264 275 283 294 301 310 316 316 313 315
75 136 146 223 263 270 300 227 254 267 294 285 11 24 23 13 316 257 228 218 230 240 241 237 239 244 246 246 250 261 265 268 270 261 264 266 242 246 257 267 272 282 293 306 312 314 318 319 323
17 2 188 103 347 30 281 294 325 321 350 356 11 9 349 13 3 279 254 247 242 241 238 243 248 242 243 249 259 265 277 273 272 267 256 242 236 240 257 261 266 280 301 308 310 315 324 323 321
88 168 21 10 360 295 289 286 235 313 321 324 356 6 11 12 359 332 274 255 242 236 241 243 244 250 251 255 265 277 271 266 257 248 235 216 227 252 248 255 269 289 300 304 307 314 318 307 306
6 14 36 115 118 187 293 274 267 307 299 306 341 357 356 350 330 283 264 257 250 242 246 249 249 251 252 256 257 268 269 273 253 239 220 245 251 226 235 257 284 295 302 312 315 312 308 304 299
67 80 103 102 300 325 175 276 258 358 331 333 343 36 14 14 345 322 287 276 262 249 250 249 243 247 247 252 244 275 271 252 252 243 254 242 248 262 276 295 302 306 312 313 309 308 308 304 301
Wind_Speed_850mb
35 22 13 7 7 9 7 7 1 6 8 14 12 10 12 6 10 8 25 52 45 59 61 60 54 47 42 42 41 38 34 31 29 29 29 28 25 21 19 17 17 18 20 23 25 24 22 19 17
35 25 4 4 8 5 11 7 12 14 20 5 17 2 3 5 4 21 48 55 45 59 62 62 55 48 43 42 39 36 32 28 28 27 26 24 21 18 15 14 16 20 23 24 23 21 18 15 14
28 22 4 7 6 3 8 10 18 14 30 22 15 9 7 4 11 43 42 49 59 63 63 61 56 50 44 41 39 34 31 28 26 25 23 21 17 14 12 12 17 20 21 21 21 18 14 10 7
18 6 8 7 10 14 10 25 25 6 16 38 20 5 1 11 24 30 44 48 64 62 60 59 56 50 44 41 37 34 31 27 24 22 21 19 16 12 9 12 16 17 18 17 15 12 8 3 1
15 5 8 6 10 10 11 22 31 13 8 20 26 10 8 19 24 30 44 50 55 57 58 57 54 49 45 40 38 34 29 24 21 21 20 17 13 10 7 12 15 15 15 13 11 9 5 5 7
1 5 7 6 10 10 16 26 20 14 16 17 18 19 7 16 29 29 41 45 49 53 54 53 51 48 44 41 37 32 27 23 22 20 18 16 13 10 8 10 14 14 13 11 9 7 8 10 12
12 8 8 8 12 12 7 11 10 5 17 12 26 7 6 19 33 37 42 43 48 51 52 51 50 47 44 40 35 32 28 25 21 20 19 18 15 12 10 11 13 13 10 7 7 9 12 14 17
12 10 3 7 6 14 12 6 23 24 14 13 27 10 11 35 51 49 52 49 51 56 52 50 48 46 44 42 38 34 30 26 23 22 22 19 17 14 11 11 12 10 7 6 9 14 16 19 21
12 8 7 9 6 13 42 11 11 11 22 33 13 12 13 47 62 58 59 56 59 59 52 49 47 46 44 41 38 35 32 29 27 25 24 22 19 17 16 11 11 11 9 8 11 13 18 24 21
8 8 14 16 10 14 40 23 6 13 22 23 11 15 38 56 67 66 64 61 61 59 53 54 51 50 47 43 39 36 34 32 29 27 25 24 23 22 21 17 16 14 13 13 14 18 23 23 24
11 11 9 27 47 48 28 42 13 15 7 33 36 56 61 66 74 71 64 57 53 51 52 51 49 50 48 46 43 41 38 34 33 32 30 28 28 28 23 22 19 15 15 16 20 22 24 27 32
3 21 16 23 34 16 12 22 4 43 31 45 50 68 74 75 76 76 68 63 61 62 49 50 49 50 50 47 46 41 38 33 36 35 33 33 31 30 26 24 23 24 21 23 26 29 32 36 38
7 7 25 37 45 37 26 28 17 32 28 28 60 78 79 77 75 71 62 52 58 63 56 51 52 48 50 49 49 46 43 34 29 34 32 32 30 29 28 28 27 26 27 30 32 33 35 38 41
11 22 35 32 28 14 10 15 6 47 14 41 63 75 85 82 74 70 71 63 64 59 63 53 56 52 52 49 45 48 45 33 27 30 27 28 26 24 24 28 31 35 37 34 32 35 40 42 44
15 13 19 10 10 19 9 23 14 39 25 49 69 77 79 88 79 71 55 70 62 58 61 62 59 58 57 49 42 46 45 41 36 31 32 32 29 28 30 31 32 37 39 40 40 42 41 43 46
10 7 9 13 15 17 4 23 32 25 27 48 71 73 77 80 90 81 62 61 70 62 68 65 63 65 61 56 47 47 46 45 40 39 38 38 36 36 38 36 35 41 46 45 44 44 45 45 50
13 5 7 17 19 7 1 17 23 14 19 34 54 73 84 84 82 88 81 73 72 72 67 71 71 68 61 55 53 47 45 49 47 44 44 44 41 41 43 38 44 48 46 43 44 43 45 48 49
6 10 10 13 14 7 10 15 20 31 16 6 28 64 81 79 90 88 90 80 83 79 76 73 76 75 66 61 57 53 52 53 56 52 49 46 46 46 46 43 47 52 46 41 43 44 45 43 45
6 6 11 23 16 9 10 11 23 34 25 27 22 30 68 77 91 93 87 87 88 88 86 83 84 82 77 70 66 63 63 60 63 61 55 54 52 49 49 50 46 58 45 39 44 42 40 40 46
12 10 14 13 9 4 14 20 16 15 21 29 48 32 36 44 66 92 94 90 93 92 98 94 90 86 77 73 69 69 64 67 70 69 68 61 57 51 54 35 26 68 49 43 38 38 36 39 44
10 10 9 11 9 8 14 16 14 15 15 36 48 49 46 40 56 64 88 99 96 95 99 95 93 89 79 74 74 75 74 73 76 78 72 63 53 65 64 27 26 54 45 37 33 32 36 39 39
5 8 3 10 10 4 6 8 12 19 27 19 36 66 32 9 16 39 66 91 104 97 96 93 90 89 79 77 76 85 85 76 75 69 66 63 67 64 53 24 46 38 33 31 27 32 37 39 33
14 4 6 6 7 5 15 9 17 17 30 40 29 52 43 32 5 19 44 71 95 94 91 86 85 86 79 76 77 82 80 78 70 74 64 59 67 62 50 37 24 22 25 25 28 34 38 31 31
5 6 13 9 6 7 9 7 13 11 12 24 22 62 54 38 12 9 20 32 64 87 85 78 77 82 84 80 77 73 72 70 72 63 60 57 62 53 39 16 16 22 20 23 31 35 30 28 29
12 14 8 10 10 8 4 5 14 21 18 10 17 54 58 27 18 13 14 17 28 61 75 73 74 78 75 70 64 62 66 62 60 60 58 57 59 50 21 13 17 18 20 26 33 30 26 25 21
3 12 10 4 4 10 8 4 8 10 24 10 8 38 44 56 21 19 21 20 21 30 48 64 66 65 62 56 53 52 56 56 54 48 46 41 41 25 16 20 17 21 24 29 29 25 21 19 18
4 6 3 11 5 4 7 12 15 11 17 27 40 29 28 39 30 20 19 20 25 38 44 50 55 54 47 45 49 44 51 53 51 46 37 36 29 18 21 19 22 22 25 27 24 23 22 24 25
12 5 8 8 1 8 10 9 9 13 18 16 16 28 36 26 23 17 20 27 36 40 43 48 46 42 37 37 40 36 34 39 39 33 25 24 21 19 18 19 19 22 24 23 25 26 27 30 32
12 9 8 7 6 8 6 12 8 8 18 16 21 30 34 25 15 17 29 37 47 44 49 47 39 33 33 41 33 28 30 32 24 18 16 15 11 11 14 15 18 20 21 24 27 33 34 35 33
11 6 9 8 10 2 3 13 5 13 18 28 24 29 31 36 27 24 18 27 39 49 54 48 39 39 35 39 24 18 25 23 19 13 14 11 9 10 12 14 18 22 25 29 32 33 34 35 37
Wind_Direction_850mb
353 350 302 12 36 44 284 265 139 258 305 277 331 193 185 107 184 207 153 169 174 176 172 171 175 176 175 171 165 160 156 152 147 146 148 146 145 141 139 138 140 141 140 141 138 134 130 129 126
347 347 354 99 84 20 284 250 223 208 212 314 285 189 176 151 165 151 155 171 180 175 173 173 176 180 179 173 168 162 157 154 151 151 150 148 144 137 132 132 135 139 142 142 139 139 138 133 129
342 340 64 87 99 213 264 213 255 255 232 259 324 338 350 167 176 152 163 176 177 176 173 174 177 182 182 176 170 165 163 161 158 157 154 152 143 133 124 128 135 140 146 149 150 151 149 142 134
344 356 60 84 246 263 243 280 242 169 259 243 205 266 263 188 159 166 170 174 175 175 173 176 180 184 184 178 173 172 171 167 164 159 159 158 151 139 129 138 145 155 157 159 162 164 163 164 266
335 28 51 336 273 258 264 292 211 170 238 167 172 211 220 175 159 175 172 171 175 175 175 179 182 185 185 180 180 180 176 171 167 169 168 167 161 154 151 159 163 167 166 175 185 197 212 265 294
17 62 50 270 249 284 293 321 200 204 226 165 183 173 179 207 196 181 165 167 176 179 178 183 184 186 185 184 186 184 182 180 180 181 178 178 180 179 182 174 175 177 182 191 209 238 270 286 295
136 95 220 233 275 310 159 21 206 257 280 221 168 128 199 181 169 163 162 174 181 183 180 185 186 186 188 189 191 192 191 192 193 191 191 194 196 203 198 193 191 190 198 216 249 271 278 283 285
160 106 236 254 255 272 193 20 305 185 226 227 172 187 206 180 162 169 174 180 183 184 184 187 189 190 192 193 196 197 200 201 202 202 205 206 211 218 216 210 206 198 207 240 273 275 280 278 282
166 74 245 247 270 262 303 69 328 224 241 205 216 229 257 169 169 176 179 181 187 185 189 192 195 196 199 199 200 202 206 208 211 212 213 217 223 230 222 213 197 185 210 261 277 279 269 269 277
128 137 228 217 234 285 308 316 300 208 184 239 194 192 178 176 177 185 183 180 184 187 192 199 201 201 201 205 207 209 211 213 217 221 223 226 230 235 228 211 209 231 238 244 265 274 278 277 279
164 195 216 276 274 279 279 292 289 198 252 226 180 170 178 185 185 190 191 194 196 190 195 199 203 206 207 209 211 212 214 217 220 222 226 229 234 239 225 218 226 235 251 260 265 276 287 280 290
283 246 247 287 306 295 250 279 220 190 217 243 189 177 179 188 194 196 199 202 201 199 203 202 203 208 210 214 216 217 217 220 225 225 229 233 235 229 229 236 240 243 254 262 263 275 284 286 289
209 290 307 304 310 302 281 257 257 223 258 214 180 177 189 191 199 202 204 209 207 208 208 211 207 209 212 213 219 218 214 223 230 225 229 230 230 234 243 248 248 251 259 269 274 275 284 283 286
297 292 298 310 304 279 255 275 201 291 180 183 185 189 193 200 203 203 205 207 213 213 214 216 210 210 211 214 213 211 219 221 222 218 222 224 229 239 253 257 262 264 268 276 277 282 285 285 287
302 341 328 305 329 309 292 303 232 275 200 184 194 199 201 206 207 212 216 215 217 221 221 219 216 213 214 215 213 215 221 224 224 226 229 232 238 249 258 267 274 278 276 275 274 277 282 288 295
6 50 9 293 355 315 119 267 280 299 190 194 199 202 205 213 212 216 220 221 223 225 224 222 220 218 220 220 221 222 224 228 232 235 237 241 244 248 255 266 275 276 273 269 268 275 283 286 291
7 292 318 316 320 277 137 287 285 355 199 208 212 209 210 218 222 222 221 225 225 228 226 225 223 224 226 229 230 233 235 234 238 239 242 245 246 249 254 266 267 269 263 266 269 274 277 286 294
291 333 313 281 299 351 322 287 303 331 320 18 233 223 220 219 224 228 224 223 230 231 231 229 229 226 229 231 233 234 236 238 241 240 242 246 248 252 248 258 259 265 267 269 272 276 284 293 298
269 268 269 282 270 292 339 304 303 311 326 303 286 231 230 229 237 231 228 228 227 232 233 232 229 229 227 229 229 232 239 241 239 247 254 255 255 252 247 250 263 269 266 271 278 281 288 294 303
232 268 270 278 267 274 348 294 274 288 267 269 298 283 242 239 245 237 231 230 230 230 234 232 231 231 233 232 235 236 244 245 247 250 251 252 256 252 241 232 314 279 269 276 279 284 292 302 309
233 206 257 233 311 30 341 321 319 293 267 305 304 312 300 260 233 237 236 232 230 230 233 233 231 231 233 234 235 233 237 238 241 242 245 248 252 258 238 256 291 263 270 270 281 290 303 310 306
288 240 265 315 40 318 39 284 329 324 314 295 344 346 319 242 206 222 236 229 227 229 231 234 231 233 233 236 234 234 237 238 243 244 244 250 252 231 245 254 271 262 264 278 292 303 312 309 305
232 50 28 357 81 42 347 57 276 324 351 342 332 14 9 296 199 236 229 233 230 229 232 236 233 232 235 237 240 241 244 247 252 253 248 250 244 237 247 248 246 253 269 287 303 311 311 308 308
309 26 42 54 51 38 290 103 299 322 306 332 360 29 8 359 321 161 227 227 238 229 234 236 236 235 233 235 240 245 249 254 257 255 264 260 241 237 239 231 253 274 283 299 305 312 315 313 314
74 49 357 1 12 218 324 45 242 292 291 276 353 36 28 344 309 252 222 221 229 233 237 238 237 238 241 243 248 256 260 259 262 265 265 270 235 237 246 264 275 283 294 301 310 316 316 313 315
75 136 146 223 263 270 300 227 254 267 294 285 11 24 23 13 316 257 228 218 230 240 241 237 239 244 246 246 250 261 265 268 270 261 264 266 242 246 257 267 272 282 293 306 312 314 318 319 323
17 2 188 103 347 30 281 294 325 321 350 356 11 9 349 13 3 279 254 247 242 241 238 243 248 242 243 249 259 265 277 273 272 267 256 242 236 240 257 261 266 280 301 308 310 315 324 323 321
88 168 21 10 360 295 289 286 235 313 321 324 356 6 11 12 359 332 274 255 242 236 241 243 244 250 251 255 265 277 271 266 257 248 235 216 227 252 248 255 269 289 300 304 307 314 318 307 306
6 14 36 115 118 187 293 274 267 307 299 306 341 357 356 350 330 283 264 257 250 242 246 249 249 251 252 256 257 268 269 273 253 239 220 245 251 226 235 257 284 295 302 312 315 312 308 304 299
67 80 103 102 300 325 175 276 258 358 331 333 343 36 14 14 345 322 287 276 262 249 250 249 243 247 247 252 244 275 271 252 252 243 254 242 248 262 276 295 302 306 312 313 309 308 308 304 301